When you browse on this site, cookies collect data to enhance your experience and personalize the content and advertising you see.
Visit our Privacy Policy to learn more. By continuing to use the site, you agree to this use of cookies and data.

Meteo pe oră la Dzial

Astăzi, 25 Septembrie, Vineri

Timp Temperatura Precipitaţii Vânt Presiune Umiditate
00:00 +13°C° 0 mm 1 m/s 699 mmHg 92%
01:00 +13°C° 0 mm 2 m/s 699 mmHg 93%
02:00 +13°C° 0 mm 2 m/s 698 mmHg 93%
03:00 +12°C° 0 mm 2 m/s 698 mmHg 93%
04:00 +12°C° 0 mm 2 m/s 697 mmHg 93%
05:00 +13°C° 0 mm 2 m/s 697 mmHg 91%
06:00 +13°C° 0 mm 2 m/s 696 mmHg 90%
07:00 +14°C° 0 mm 2 m/s 696 mmHg 89%
08:00 +16°C° 0 mm 2 m/s 696 mmHg 83%
09:00 +17°C° 0 mm 3 m/s 695 mmHg 77%
10:00 +19°C° 0 mm 3 m/s 695 mmHg 72%
11:00 +19°C° 0 mm 4 m/s 695 mmHg 71%
12:00 +19°C° 0 mm 4 m/s 695 mmHg 70%
13:00 +18°C° 0 mm 4 m/s 694 mmHg 70%
14:00 +18°C° 0.2 mm 4 m/s 694 mmHg 74%
15:00 +17°C° 0.2 mm 3 m/s 693 mmHg 79%
16:00 +16°C° 0.2 mm 2 m/s 692 mmHg 84%
17:00 +15°C° 0 mm 2 m/s 692 mmHg 87%
18:00 +15°C° 0 mm 1 m/s 692 mmHg 89%
19:00 +14°C° 0 mm 1 m/s 692 mmHg 92%
20:00 +14°C° 0.1 mm 1 m/s 692 mmHg 92%
21:00 +14°C° 0.1 mm 1 m/s 691 mmHg 93%
22:00 +14°C° 0.1 mm 1 m/s 691 mmHg 93%
23:00 +14°C° 0.2 mm 1 m/s 690 mmHg 94%

Mâine, 26 Septembrie, Sâmbătă

Timp Temperatura Precipitaţii Vânt Presiune Umiditate
00:00 +14°C° 0.2 mm 1 m/s 690 mmHg 95%
01:00 +13°C° 0.2 mm 2 m/s 689 mmHg 96%
02:00 +14°C° 0.5 mm 2 m/s 688 mmHg 96%
03:00 +14°C° 0.5 mm 2 m/s 688 mmHg 96%
04:00 +14°C° 0.5 mm 2 m/s 687 mmHg 96%
05:00 +13°C° 0.7 mm 3 m/s 687 mmHg 95%
06:00 +13°C° 0.7 mm 3 m/s 687 mmHg 95%
07:00 +13°C° 0.7 mm 3 m/s 687 mmHg 95%
08:00 +15°C° 1.3 mm 2 m/s 688 mmHg 91%
09:00 +15°C° 1.3 mm 2 m/s 688 mmHg 87%
10:00 +15°C° 1.3 mm 2 m/s 689 mmHg 84%
11:00 +15°C° 0.1 mm 2 m/s 689 mmHg 79%
12:00 +16°C° 0.1 mm 2 m/s 690 mmHg 75%
13:00 +16°C° 0.1 mm 2 m/s 690 mmHg 70%
14:00 +15°C° 0.3 mm 2 m/s 691 mmHg 74%
15:00 +14°C° 0.3 mm 2 m/s 691 mmHg 77%
16:00 +13°C° 0.3 mm 2 m/s 691 mmHg 81%
17:00 +12°C° 0.1 mm 2 m/s 691 mmHg 85%
18:00 +11°C° 0.1 mm 1 m/s 691 mmHg 88%
19:00 +10°C° 0.1 mm 1 m/s 691 mmHg 92%
20:00 +9°C° 0 mm 1 m/s 692 mmHg 92%
21:00 +8°C° 0 mm 1 m/s 692 mmHg 92%
22:00 +8°C° 0 mm 1 m/s 692 mmHg 93%
23:00 +7°C° 0 mm 1 m/s 692 mmHg 92%

Poimâine, 27 Septembrie, Duminică

Timp Temperatura Precipitaţii Vânt Presiune Umiditate
00:00 +7°C° 0 mm 1 m/s 692 mmHg 92%
01:00 +7°C° 0 mm 1 m/s 693 mmHg 92%
02:00 +7°C° 0 mm 1 m/s 693 mmHg 91%
03:00 +7°C° 0 mm 1 m/s 693 mmHg 91%
04:00 +7°C° 0 mm 1 m/s 693 mmHg 90%
05:00 +7°C° 0 mm 1 m/s 693 mmHg 88%
06:00 +7°C° 0 mm 1 m/s 693 mmHg 86%
07:00 +7°C° 0 mm 1 m/s 693 mmHg 84%
08:00 +7°C° 0 mm 2 m/s 694 mmHg 80%
09:00 +8°C° 0 mm 2 m/s 694 mmHg 77%
10:00 +8°C° 0 mm 2 m/s 695 mmHg 73%
11:00 +9°C° 0 mm 3 m/s 695 mmHg 70%
12:00 +10°C° 0 mm 3 m/s 695 mmHg 66%
13:00 +11°C° 0 mm 3 m/s 695 mmHg 62%
14:00 +10°C° 0 mm 3 m/s 696 mmHg 64%
15:00 +10°C° 0 mm 3 m/s 696 mmHg 66%
16:00 +10°C° 0 mm 3 m/s 696 mmHg 67%
17:00 +9°C° 0 mm 3 m/s 697 mmHg 71%
18:00 +8°C° 0 mm 2 m/s 697 mmHg 74%
19:00 +8°C° 0 mm 2 m/s 697 mmHg 78%
20:00 +7°C° 0 mm 2 m/s 698 mmHg 80%
21:00 +6°C° 0 mm 2 m/s 698 mmHg 83%
22:00 +6°C° 0 mm 2 m/s 699 mmHg 86%
23:00 +5°C° 0 mm 2 m/s 699 mmHg 87%

28 Septembrie, Luni

Timp Temperatura Precipitaţii Vânt Presiune Umiditate
00:00 +5°C° 0 mm 2 m/s 699 mmHg 87%
01:00 +4°C° 0 mm 2 m/s 699 mmHg 88%
02:00 +4°C° 0 mm 2 m/s 699 mmHg 88%
03:00 +5°C° 0 mm 1 m/s 699 mmHg 87%
04:00 +5°C° 0 mm 1 m/s 699 mmHg 86%
05:00 +6°C° 0 mm 1 m/s 699 mmHg 83%
06:00 +7°C° 0 mm 1 m/s 699 mmHg 79%
07:00 +8°C° 0 mm 1 m/s 699 mmHg 75%
08:00 +8°C° 0.4 mm 1 m/s 699 mmHg 81%
09:00 +8°C° 0.4 mm 1 m/s 699 mmHg 86%
10:00 +8°C° 0.4 mm 1 m/s 700 mmHg 92%
11:00 +9°C° 0 mm 1 m/s 700 mmHg 88%
12:00 +11°C° 0 mm 1 m/s 700 mmHg 84%
13:00 +11°C° 0 mm 0 m/s 700 mmHg 80%
14:00 +11°C° 0 mm 0 m/s 700 mmHg 80%
15:00 +11°C° 0 mm 0 m/s 700 mmHg 80%
16:00 +11°C° 0 mm 0 m/s 700 mmHg 80%
17:00 +10°C° 0.1 mm 0 m/s 700 mmHg 84%
18:00 +9°C° 0.1 mm 0 m/s 700 mmHg 88%
19:00 +9°C° 0.1 mm 0 m/s 700 mmHg 93%
20:00 +8°C° 0.1 mm 0 m/s 700 mmHg 94%
21:00 +9°C° 0.1 mm 1 m/s 700 mmHg 95%
22:00 +9°C° 0.1 mm 1 m/s 700 mmHg 96%
23:00 +9°C° 0 mm 1 m/s 700 mmHg 96%

29 Septembrie, Marţi

Timp Temperatura Precipitaţii Vânt Presiune Umiditate
00:00 +9°C° 0 mm 1 m/s 700 mmHg 96%
01:00 +8°C° 0 mm 1 m/s 700 mmHg 96%
02:00 +8°C° 0 mm 1 m/s 700 mmHg 96%
03:00 +8°C° 0 mm 1 m/s 700 mmHg 95%
04:00 +8°C° 0 mm 1 m/s 700 mmHg 95%
05:00 +8°C° 0 mm 1 m/s 700 mmHg 94%
06:00 +8°C° 0 mm 1 m/s 700 mmHg 93%
07:00 +8°C° 0 mm 1 m/s 700 mmHg 92%
08:00 +9°C° 0 mm 1 m/s 700 mmHg 87%
09:00 +11°C° 0 mm 1 m/s 700 mmHg 82%
10:00 +12°C° 0 mm 1 m/s 700 mmHg 76%
11:00 +11°C° 0.3 mm 1 m/s 700 mmHg 81%
12:00 +11°C° 0.3 mm 1 m/s 700 mmHg 85%
13:00 +10°C° 0.3 mm 1 m/s 700 mmHg 90%
14:00 +9°C° 0.1 mm 2 m/s 700 mmHg 90%
15:00 +9°C° 0.1 mm 2 m/s 700 mmHg 90%
16:00 +10°C° 0.1 mm 2 m/s 700 mmHg 90%
17:00 +10°C° 0.4 mm 1 m/s 700 mmHg 92%
18:00 +10°C° 0.4 mm 1 m/s 700 mmHg 94%
19:00 +9°C° 0.4 mm 1 m/s 700 mmHg 96%
20:00 +9°C° 0.4 mm 1 m/s 700 mmHg 96%
21:00 +9°C° 0.4 mm 1 m/s 701 mmHg 96%
22:00 +9°C° 0.4 mm 1 m/s 701 mmHg 96%
23:00 +9°C° 0.6 mm 1 m/s 701 mmHg 97%

30 Septembrie, Miercuri

Timp Temperatura Precipitaţii Vânt Presiune Umiditate
00:00 +9°C° 0.6 mm 1 m/s 701 mmHg 97%
01:00 +9°C° 0.6 mm 1 m/s 700 mmHg 97%
02:00 +9°C° 0.3 mm 1 m/s 701 mmHg 97%
03:00 +8°C° 0.3 mm 2 m/s 701 mmHg 97%
04:00 +8°C° 0.3 mm 2 m/s 701 mmHg 97%
05:00 +8°C° 0.3 mm 2 m/s 701 mmHg 97%
06:00 +8°C° 0.3 mm 2 m/s 701 mmHg 97%
07:00 +8°C° 0.3 mm 2 m/s 701 mmHg 97%
08:00 +9°C° 0.1 mm 2 m/s 701 mmHg 95%
09:00 +9°C° 0.1 mm 2 m/s 701 mmHg 93%
10:00 +9°C° 0.1 mm 3 m/s 701 mmHg 91%
11:00 +10°C° 0.1 mm 3 m/s 700 mmHg 88%
12:00 +10°C° 0.1 mm 3 m/s 700 mmHg 84%
13:00 +11°C° 0.1 mm 4 m/s 700 mmHg 81%
14:00 +11°C° 0.1 mm 4 m/s 700 mmHg 83%
15:00 +10°C° 0.1 mm 4 m/s 699 mmHg 85%
16:00 +10°C° 0.1 mm 4 m/s 699 mmHg 86%
17:00 +10°C° 0.6 mm 3 m/s 699 mmHg 89%
18:00 +9°C° 0.6 mm 3 m/s 699 mmHg 92%
19:00 +9°C° 0.6 mm 2 m/s 699 mmHg 95%
20:00 +9°C° 0.8 mm 3 m/s 699 mmHg 96%
21:00 +9°C° 0.8 mm 3 m/s 699 mmHg 96%
22:00 +9°C° 0.8 mm 3 m/s 699 mmHg 97%
23:00 +9°C° 0.8 mm 3 m/s 699 mmHg 97%
Arată mai mult